Home > Weather > Garden Grove > Past weeks

Flag for U.S.A. Weather for the Past 2 Weeks in Garden Grove, California, U.S.A.

Now
70 °F

Clear.


Feels Like: 73 °F
Forecast: 56 / 85 °F
Wind: 5 mph from Northeast

Location: Fullerton Municipal Airport

Current Time: Feb 7, 2016 at 10:28:06 PM

Latest Report: Feb 7, 2016 at 9:53 PM


Visibility: 10 mi

Pressure: 30.10 "Hg

Humidity: 16%

Dew point: 21 °F

Location of Garden GroveLocation

Historic Weather in Garden Grove — Graph

°F

Garden Grove Temperature Yesterday

Maximum temperature yesterday: 80 °F (at 12:53 PM)
Minimum temperature yesterday: 49 °F (at 5:53 AM)
Average temperature yesterday: 66 °F

High & Low Weather Summary for the Past Weeks

 TemperatureHumidityPressure
High89 °F (Feb 7, 2:53 PM)90% (Jan 24, 3:53 AM)30.35 "Hg (Jan 24, 3:53 AM)
Low36 °F (Feb 2, 5:53 AM)8% (Feb 7, 2:53 PM)29.61 "Hg (Jan 31, 2:00 PM)
Average58 °F49%30.12 "Hg
* Reported Jan 23 8:53 PM — Feb 7 8:53 PM, Garden Grove, Weather by CustomWeather, © 2016

Note: Actual official high and low records may vary slightly from our data, if they occured in-between our weather recording intervals... More about our weather records

Advertising

Garden Grove Weather History for the Previous 24 Hours

 ConditionsComfort  
Time TempWeatherWind HumidityBarometerVisibility
8:53 PM
Sun, Feb 7
65 °FClear.No wind28%30.09 "Hg10 mi
7:53 PM69 °FClear.3 mph21%30.09 "Hg10 mi
6:53 PM74 °FClear.3 mph16%30.08 "Hg10 mi
5:53 PM76 °FClear.No wind16%30.07 "Hg10 mi
4:53 PM83 °FSunny.6 mph12%30.05 "Hg10 mi
3:53 PM88 °FSunny.5 mph9%30.04 "Hg10 mi
2:53 PM89 °FSunny.3 mph8%30.04 "Hg10 mi
1:53 PM88 °FSunny.3 mph9%30.05 "Hg10 mi
12:53 PM86 °FSunny.6 mph11%30.07 "Hg10 mi
11:53 AM83 °FSunny.3 mph12%30.10 "Hg10 mi
10:53 AM79 °FSunny.3 mph15%30.12 "Hg10 mi
9:53 AM76 °FSunny.No wind22%30.13 "Hg10 mi
8:53 AM69 °FSunny.No wind24%30.13 "Hg10 mi
7:53 AM59 °FSunny.3 mph31%30.12 "Hg10 mi
6:53 AM49 °FSunny.No wind48%30.11 "Hg10 mi
5:53 AM49 °FClear.No wind46%30.10 "Hg10 mi
4:53 AM50 °FClear.No wind46%30.11 "Hg10 mi
3:53 AM50 °FClear.No wind48%30.11 "Hg10 mi
2:53 AM52 °FClear.No wind47%30.13 "Hg10 mi
1:53 AM53 °FClear.No wind43%30.14 "Hg10 mi
12:53 AM56 °FClear.No wind36%30.14 "Hg10 mi
11:53 PM
Sat, Feb 6
61 °FClear.No wind25%30.14 "Hg10 mi
10:53 PM70 °FClear.6 mph13%30.14 "Hg10 mi
Weather by CustomWeather, © 2016

See weather overviewHow to use our weather pages